Regional Weather Roundup
Issued by NWS

Home | Current Version | Previous Version | Text Only | Print | Product List | Glossary On
Versions: 1 2 3 4 5 6 7 8 9 10 11 12 13 14 15 16 17 18 19 20 21 22 23 24 25 26 27 28 29 30 31 32 33 34 35 36 37 38 39 40 41 42 43 44 45 46 47 48 49 50
328
ASUS43 KLMK 302310
RWRKY
KENTUCKY REGIONAL WEATHER ROUNDUP
NATIONAL WEATHER SERVICE LOUISVILLE KY
700 PM EDT SAT APR 30 2016

NOTE "FAIR" INDICATES FEW OR NO CLOUDS BELOW 12,000 FEET
WITH NO SIGNIFICANT WEATHER AND/OR OBSTRUCTIONS TO VISIBILITY.

KYZ001>023-026-027-061>063-070>075-010000-
WESTERN AND SOUTH CENTRAL KENTUCKY

CITY           SKY/WX    TMP DP  RH WIND       PRES   REMARKS
PADUCAH        CLOUDY    73  62  68 SE9       29.80S
HENDERSON      CLOUDY    70  63  78 S13       29.82R
OWENSBORO      CLOUDY    69  66  90 SE8       29.85S
HOPKINSVILLE   PTSUNNY   69  64  84 SE3       29.84F
BOWLING GREEN  CLOUDY    71  66  84 CALM      29.87F
GLASGOW        RAIN      69  64  84 CALM      29.89F
$$

KYZ024-025-028>034-038-045-046-053-010000-
NORTH CENTRAL KENTUCKY

CITY           SKY/WX    TMP DP  RH WIND       PRES   REMARKS
LOUISVILLE/SDF CLOUDY    67  62  84 CALM      29.90R
LOUISVILLE/LOU CLOUDY    67  61  81 CALM      29.91R
FORT KNOX      LGT RAIN  67  62  85 SE6       29.88F
$$

KYZ035>037-039>044-047>052-055>060-089>105-010000-
NORTHEAST KENTUCKY

CITY           SKY/WX    TMP DP  RH WIND       PRES   REMARKS
LEXINGTON      CLOUDY    63  59  87 SE9       29.92R
COVINGTON      CLOUDY    60  58  92 SE7       29.92F
FRANKFORT      LGT RAIN  64  60  87 CALM      29.91R
$$

KYZ054-064>069-076>088-106>120-010000-
SOUTHEAST KENTUCKY

CITY           SKY/WX    TMP DP  RH WIND       PRES   REMARKS
JACKSON        CLOUDY    61  59  93 VRB5      29.96S
LONDON         CLOUDY    63  59  87 CALM      29.93F
SOMERSET       CLOUDY    63  63 100 SE5       29.93S
MIDDLESBORO    CLOUDY    64  62  95 CALM      29.98R
MONTICELLO     CLOUDY    66  63  90 NE9       29.93S
$$





USA.gov is the U.S. government's official web portal to all federal, state and local government web resources and services.